EW6329 Weather Reports


Display with metric or nautical units.
time (UTC)temp
F
wind
direction
speed
MPH
gust
MPH
rain 1hr
in
rain 24hr
in
rain mn
in
humidity
%
barometer
mb
20260506134502 52 275 0.0 2.0 0.00 2.06 1.23 95 1011.1
20260506133015 52 275 0.0 1.0 0.00 2.06 1.23 95 1011.2
20260506131535 52 269 0.0 2.0 0.00 2.06 1.23 95 1011.2
20260506130042 52 252 0.0 1.0 0.00 2.06 1.23 95 1010.9
20260506124554 52 251 0.0 0.0 0.00 2.06 1.23 95 1009.9
20260506123003 51 251 0.0 0.0 0.00 2.06 1.23 95 1010.0
20260506121516 51 251 0.0 2.0 0.00 2.06 1.23 95 1009.9
20260506084507 53 231 0.0 2.0 0.69 1.76 0.93 94 1007.2
20260506083020 53 294 0.0 2.0 0.64 1.69 0.86 94 1006.2
20260506081533 53 281 1.0 3.0 0.33 1.38 0.55 93 1007.9
20260506073012 55 307 0.0 2.0 0.20 1.05 0.22 92 1006.9
20260506071523 56 279 0.0 2.0 0.21 1.05 0.22 91 1006.1
20260506061508 67 311 1.0 5.0 0.01 0.84 0.01 94 1005.1
20260506044523 66 91 0.0 2.0 0.00 0.83 0.83 96 1004.4
20260506043034 66 45 0.0 1.0 0.00 0.83 0.83 96 1005.0
20260506041548 66 45 0.0 0.0 0.00 0.83 0.83 96 1005.0
20260506040101 65 45 0.0 1.0 0.00 0.83 0.83 96 1005.3
20260506034518 65 45 0.0 0.0 0.00 0.83 0.83 96 1005.4
20260506033024 65 45 0.0 2.0 0.00 0.83 0.83 96 1005.5
20260506031539 66 113 0.0 1.0 0.00 0.83 0.83 96 1005.5
20260506030051 66 37 0.0 0.0 0.00 0.83 0.83 96 1005.5
20260506024619 66 37 0.0 0.0 0.00 0.83 0.83 96 1005.6
20260506023014 66 146 0.0 0.0 0.00 0.83 0.83 96 1005.7
20260506021528 66 146 0.0 1.0 0.00 0.83 0.83 96 1005.5
20260506020040 66 147 0.0 0.0 0.00 0.83 0.83 96 1005.4
20260506014555 66 147 0.0 0.0 0.00 0.83 0.83 96 1005.2
20260506013008 66 54 0.0 0.0 0.00 0.83 0.83 96 1005.2
20260506011519 66 54 0.0 0.0 0.00 0.83 0.83 96 1005.0
20260506010031 66 54 0.0 0.0 0.00 0.83 0.83 96 1004.9
20260506004545 66 51 0.0 0.0 0.00 0.83 0.83 96 1004.8
20260506003059 66 96 0.0 0.0 0.00 0.83 0.83 96 1005.0
20260506001508 66 96 0.0 0.0 0.00 0.83 0.83 96 1004.9
20260506000022 66 98 0.0 1.0 0.00 0.83 0.83 96 1004.6
20260505234537 66 98 0.0 0.0 0.00 0.83 0.83 96 1005.0
20260505233046 66 91 0.0 0.0 0.00 0.83 0.83 96 1005.0
20260505231600 66 91 0.0 2.0 0.00 0.83 0.83 96 1005.0
20260505230025 66 91 0.0 0.0 0.00 0.83 0.83 96 1005.0
20260505224522 65 115 0.0 0.0 0.00 0.83 0.83 96 1005.1
20260505223043 65 115 0.0 0.0 0.00 0.83 0.83 96 1005.0
20260505221548 65 108 0.0 2.0 0.00 0.83 0.83 96 1005.0
20260505220106 64 108 0.0 0.0 0.00 0.83 0.83 96 1005.4
20260505214510 64 108 0.0 0.0 0.00 0.83 0.83 96 1005.5
20260505213018 64 108 0.0 0.0 0.00 0.83 0.83 95 1005.7
20260505211531 64 108 0.0 0.0 0.00 0.83 0.83 95 1005.8
20260505210044 64 108 0.0 2.0 0.00 0.83 0.83 95 1006.0
20260505204608 64 316 0.0 0.0 0.00 0.83 0.83 95 1006.0
20260505203009 64 297 0.0 0.0 0.00 0.83 0.83 95 1006.0
20260505201524 64 297 0.0 2.0 0.00 0.83 0.83 95 1006.1
20260505200037 64 297 0.0 1.0 0.00 0.83 0.83 95 1006.2
20260505194603 63 323 0.0 0.0 0.00 0.83 0.83 95 1006.1
20260505193104 63 323 0.0 0.0 0.00 0.83 0.83 95 1006.3
20260505191514 62 21 0.0 1.0 0.01 0.83 0.83 95 1006.3
20260505190027 62 21 0.0 1.0 0.02 0.83 0.83 95 1006.4
20260505184540 62 348 0.0 2.0 0.02 0.83 0.83 95 1006.5
20260505183100 61 289 0.0 1.0 0.02 0.83 0.83 95 1006.7
20260505181506 61 36 0.0 2.0 0.01 0.82 0.82 95 1006.7
20260505180017 61 36 0.0 2.0 0.00 0.81 0.81 95 1006.9
20260505174530 61 36 0.0 2.0 0.00 0.81 0.81 94 1007.1
20260505173048 60 23 0.0 1.0 0.02 0.81 0.81 94 1007.1
20260505171557 60 360 0.0 2.0 0.05 0.81 0.81 94 1007.1
20260505170008 60 360 0.0 2.0 0.09 0.81 0.81 94 1007.4
20260505164542 60 360 0.0 2.0 0.20 0.81 0.81 94 1008.0
20260505163032 59 360 0.0 2.0 0.23 0.79 0.79 93 1008.2
20260505161545 59 360 0.0 2.0 0.28 0.76 0.76 93 1008.2
20260505153019 59 32 0.0 2.0 0.30 0.55 0.55 92 1008.8
20260505151536 59 32 0.0 1.0 0.31 0.47 0.47 91 1008.5